Location: Hamburg
(53.5511°N, 9.9937°E)
Time: 00:42:15
(UTC+02:00)

ISS - Pass Details

Date: 31 May 2020
Orbit: 419 x 420 km, 51.6° (Epoch: 19 September)

Event Time Altitude Azimuth Distance (km) Brightness Sun altitude
Rises 22:13:01 0° 277° (W) 2,380 0.9 -4.5°
Reaches altitude 10° 22:15:41 10° 255° (WSW) 1,513 -0.5 -4.8°
Maximum altitude 22:17:50 16° 216° (SW) 1,203 -1.6 -5.0°
Drops below altitude 10° 22:19:59 10° 177° (S) 1,511 -1.4 -5.2°
Enters shadow 22:21:18 - 163° (SSE) 1,902 -1.0 -5.3°
